Change the Weather History Date:

Saturday, December 22, 2012

  Actual Average Record
Temperature  
Mean Temperature 40 °F -  
Max Temperature 46 °F 44 °F 54 °F (1954)
Min Temperature 34 °F 34 °F 19 °F (1983)
Degree Days  
Heating Degree Days 25    
Moisture  
Dew Point 36 °F    
Average Humidity 87    
Maximum Humidity 96    
Minimum Humidity 76    
Precipitation  
Precipitation 0.04 in - - ()
Sea Level Pressure  
Sea Level Pressure 29.53 in    
Wind  
Wind Speed 5 mph (WSW)    
Max Wind Speed 9 mph    
Max Gust Speed -    
Visibility 10 miles    
Events Rain    
Averages and records for this station are not official NWS values.
T = Trace of Precipitation, MM = Missing Value Source: NWS Daily Summary

Daily Weather History Graph

Daily Weather History Graph

Search for Another Location

Airport or City:

Trip Planner

Search our weather history database for the weather conditions in past years. The results will help you decide how hot, cold, wet, or windy it might be!

Date:

Astronomy

Dec. 22, 2012 Rise Set
Actual Time 8:02 AM PST 4:23 PM PST
Civil Twilight 7:25 AM PST 5:00 PM PST
Nautical Twilight 6:45 AM PST 5:40 PM PST
Astronomical Twilight 6:07 AM PST 6:17 PM PST
Moon 12:56 PM PST (12/22) 2:38 AM PST (12/22)
Length of Visible Light 9h 34m
Length of Day
8h 21m
Waxing Gibbous, 74% of the Moon is Illuminated
Dec 22
Waxing Gibbous
Dec 28
Full
Jan 4
Last Quarter
Jan 11
New
Jan 18
First Quarter

Hourly Weather History & Observations

Time (PST) Temp. Windchill Dew Point Humidity Pressure Visibility Wind Dir Wind Speed Gust Speed Precip Events Conditions
12:53 AM 37.0 °F 33.3 °F 34.0 °F 89% 29.63 in 10.0 mi SW 4.6 mph - N/A   Overcast
1:06 AM 37.0 °F 32.4 °F 34.0 °F 89% 29.62 in 10.0 mi SW 5.8 mph - N/A   Overcast
1:53 AM 37.0 °F 33.3 °F 34.0 °F 89% 29.62 in 10.0 mi SW 4.6 mph - N/A   Overcast
2:53 AM 37.0 °F 32.4 °F 34.0 °F 89% 29.58 in 10.0 mi SW 5.8 mph - N/A   Overcast
3:38 AM 37.0 °F 31.6 °F 33.1 °F 86% 29.57 in 10.0 mi WSW 6.9 mph - N/A   Mostly Cloudy
3:46 AM 37.0 °F 34.5 °F 33.1 °F 86% 29.57 in 10.0 mi South 3.5 mph - N/A   Mostly Cloudy
3:53 AM 36.0 °F 31.1 °F 33.1 °F 89% 29.57 in 10.0 mi SW 5.8 mph - N/A   Scattered Clouds
4:53 AM 34.0 °F 31.0 °F 33.1 °F 96% 29.53 in 10.0 mi SW 3.5 mph - N/A   Partly Cloudy
5:38 AM 36.0 °F 29.6 °F 33.1 °F 89% 29.51 in 10.0 mi SW 8.1 mph - N/A   Overcast
5:53 AM 36.0 °F - 34.0 °F 93% 29.51 in 10.0 mi Calm Calm - N/A   Overcast
6:32 AM 37.0 °F 32.4 °F 34.0 °F 89% 29.49 in 10.0 mi SW 5.8 mph - N/A   Mostly Cloudy
6:53 AM 37.0 °F 33.3 °F 34.0 °F 89% 29.49 in 10.0 mi SSW 4.6 mph - N/A   Mostly Cloudy
7:00 AM 36.0 °F 31.1 °F 34.0 °F 93% 29.48 in 10.0 mi WSW 5.8 mph - N/A   Overcast
7:53 AM 36.0 °F 32.1 °F 33.1 °F 89% 29.47 in 10.0 mi SW 4.6 mph - N/A   Clear
8:53 AM 37.0 °F 31.0 °F 33.1 °F 86% 29.47 in 10.0 mi SW 8.1 mph - N/A   Scattered Clouds
9:53 AM 39.0 °F 33.4 °F 35.1 °F 86% 29.47 in 10.0 mi West 8.1 mph - N/A   Mostly Cloudy
10:53 AM 43.0 °F 37.7 °F 37.0 °F 80% 29.46 in 10.0 mi WSW 9.2 mph - N/A   Mostly Cloudy
11:53 AM 45.0 °F 41.2 °F 37.9 °F 76% 29.44 in 10.0 mi West 6.9 mph - N/A   Partly Cloudy
12:53 PM 46.0 °F 42.5 °F 39.9 °F 79% 29.45 in 10.0 mi NW 6.9 mph - N/A   Overcast
1:39 PM 45.0 °F - 39.0 °F 80% 29.44 in 10.0 mi Calm Calm - N/A   Overcast
1:53 PM 45.0 °F 42.6 °F 39.0 °F 80% 29.44 in 10.0 mi North 4.6 mph - N/A   Overcast
2:45 PM 45.0 °F - 39.0 °F 80% 29.44 in 10.0 mi Calm Calm - N/A   Mostly Cloudy
2:53 PM 44.1 °F - 39.0 °F 82% 29.45 in 10.0 mi Calm Calm - N/A   Mostly Cloudy
3:53 PM 42.1 °F - 37.9 °F 85% 29.46 in 10.0 mi Calm Calm - N/A   Mostly Cloudy
4:53 PM 44.1 °F 42.5 °F 37.0 °F 76% 29.49 in 10.0 mi SW 3.5 mph - 0.00 in Rain Light Rain
5:53 PM 41.0 °F 38.0 °F 37.0 °F 86% 29.53 in 10.0 mi West 4.6 mph - 0.03 in Rain Light Rain
6:53 PM 41.0 °F 36.4 °F 37.0 °F 86% 29.54 in 10.0 mi West 6.9 mph - 0.01 in Rain Light Rain
7:53 PM 39.9 °F - 37.0 °F 89% 29.58 in 10.0 mi Calm Calm - 0.00 in   Partly Cloudy
8:53 PM 39.0 °F 34.8 °F 36.0 °F 89% 29.62 in 10.0 mi WSW 5.8 mph - N/A   Scattered Clouds
9:53 PM 39.9 °F 37.8 °F 37.0 °F 89% 29.61 in 10.0 mi WNW 3.5 mph - 0.00 in   Overcast
10:53 PM 37.9 °F 34.4 °F 36.0 °F 93% 29.64 in 10.0 mi South 4.6 mph - N/A   Mostly Cloudy
11:53 PM 37.0 °F 34.5 °F 35.1 °F 93% 29.65 in 10.0 mi Variable 3.5 mph - N/A   Partly Cloudy